STARLINK-3306 (50163 NORAD) Tracking and Keplerian Element Data

This shows tracking and keplerian element data for the satellite.

Feedback or suggestion? Click here.




ElementValue
Catalog50163
NameSTARLINK-3306
Epoch Orbit2660
Epoch Day140.91667824
Epoch Year2022
RAAN353.5629
Inclination53.2134
Eccentricity0.0001575
Argument of Perigee46.1387
Mean Anonmoly41.7977
Mean Motion15.08826898
Decay Rate-3.783E-05
L11 50163U 21125H 22140.91667824 -.00003783 00000+0 -21979-3 0 9991
L22 50163 53.2134 353.5629 0001575 46.1387 41.7977 15.08826898 26609

Live tracking and technical data element details for STARLINK-3306 (NORAD 50163). STARLINK-3306 can be tracked NOW for your location showing map with azimuth and elevation plus other details from your city location.

Track the satellite on the map from your city or location and see movement details for azimuth, elevation, latitude, longitude, range, height, and movement on the map or in text.







IsCatalogInMostPopularTable: catalog: 50163, numindb: 30
Update: records affected: 1



GetName: 50163 STARLINK-3306

Hit Count: updated at: Sun, 22 May 2022 03:56:22 GMT